Time,TemperatureF,DewpointF,PressureIn,WindDirection,WindDirectionDegrees,WindSpeedMPH,WindSpeedGustMPH,Humidity,HourlyPrecipIn,Conditions,Clouds,dailyrainin,SoftwareType,DateUTC
2013-02-14 00:01:00,64.8,57.0,29.98,NNE,32,7.0,9.0,76,0.00,,,0.00,weatherlink.com 1.10,2013-02-14 05:01:00,
2013-02-14 00:16:00,64.9,57.0,29.96,North,360,6.0,7.0,75,0.00,,,0.00,weatherlink.com 1.10,2013-02-14 05:16:00,
2013-02-14 00:31:00,64.9,57.0,29.96,NNE,29,4.0,6.0,75,0.00,,,0.00,weatherlink.com 1.10,2013-02-14 05:31:00,
2013-02-14 00:46:00,65.0,57.0,29.97,NE,34,2.0,9.0,75,0.00,,,0.00,weatherlink.com 1.10,2013-02-14 05:46:00,
2013-02-14 01:01:00,65.0,57.0,29.97,NNW,345,2.0,6.0,76,0.00,,,0.00,weatherlink.com 1.10,2013-02-14 06:01:00,
2013-02-14 01:16:00,65.2,57.0,29.97,NNE,22,2.0,6.0,75,0.00,,,0.00,weatherlink.com 1.10,2013-02-14 06:16:00,
2013-02-14 01:31:00,65.3,58.0,29.97,NNE,29,2.0,4.0,76,0.00,,,0.00,weatherlink.com 1.10,2013-02-14 06:31:00,
2013-02-14 01:46:00,65.4,57.0,29.97,ENE,78,3.0,4.0,75,0.00,,,0.00,weatherlink.com 1.10,2013-02-14 06:46:00,
2013-02-14 02:01:00,65.4,57.0,29.97,ENE,68,5.0,6.0,75,0.00,,,0.00,weatherlink.com 1.10,2013-02-14 07:01:00,
2013-02-14 02:16:00,64.5,59.0,29.96,East,79,1.0,3.0,82,0.00,,,0.00,weatherlink.com 1.10,2013-02-14 07:16:00,
2013-02-14 02:31:00,64.0,59.0,29.96,East,82,1.0,3.0,83,0.00,,,0.00,weatherlink.com 1.10,2013-02-14 07:31:00,
2013-02-14 02:46:00,63.9,59.0,29.96,East,87,2.0,2.0,83,0.00,,,0.00,weatherlink.com 1.10,2013-02-14 07:46:00,
2013-02-14 03:01:00,63.6,58.0,29.95,ENE,74,2.0,3.0,83,0.00,,,0.00,weatherlink.com 1.10,2013-02-14 08:01:00,
2013-02-14 03:16:00,63.7,59.0,29.95,ENE,72,2.0,3.0,83,0.00,,,0.00,weatherlink.com 1.10,2013-02-14 08:16:00,
2013-02-14 03:31:00,63.8,58.0,29.95,NE,56,1.0,4.0,82,0.00,,,0.00,weatherlink.com 1.10,2013-02-14 08:31:00,
2013-02-14 03:46:00,64.0,58.0,29.95,East,91,1.0,4.0,81,0.00,,,0.00,weatherlink.com 1.10,2013-02-14 08:46:00,
2013-02-14 04:01:00,64.2,58.0,29.95,ENE,76,2.0,4.0,80,0.00,,,0.00,weatherlink.com 1.10,2013-02-14 09:01:00,
2013-02-14 04:16:00,64.6,58.0,29.95,East,86,2.0,5.0,80,0.00,,,0.00,weatherlink.com 1.10,2013-02-14 09:16:00,
2013-02-14 04:31:00,64.1,59.0,29.95,East,95,3.0,3.0,83,0.00,,,0.00,weatherlink.com 1.10,2013-02-14 09:31:00,
2013-02-14 04:46:00,63.5,59.0,29.93,ENE,76,5.0,7.0,86,0.00,,,0.00,weatherlink.com 1.10,2013-02-14 09:46:00,
2013-02-14 05:02:00,63.4,59.0,29.93,East,83,3.0,6.0,85,0.00,,,0.00,weatherlink.com 1.10,2013-02-14 10:02:00,
2013-02-14 05:17:00,63.3,59.0,29.93,ENE,77,3.0,5.0,86,0.00,,,0.00,weatherlink.com 1.10,2013-02-14 10:17:00,
2013-02-14 05:32:00,63.3,59.0,29.95,East,91,5.0,6.0,86,0.00,,,0.00,weatherlink.com 1.10,2013-02-14 10:32:00,
2013-02-14 05:47:00,63.0,59.0,29.95,ENE,58,2.0,8.0,87,0.00,,,0.00,weatherlink.com 1.10,2013-02-14 10:47:00,
2013-02-14 06:02:00,62.6,59.0,29.95,East,84,2.0,5.0,88,0.00,,,0.00,weatherlink.com 1.10,2013-02-14 11:02:00,
2013-02-14 06:17:00,62.2,59.0,29.96,ENE,70,5.0,7.0,90,0.00,,,0.00,weatherlink.com 1.10,2013-02-14 11:17:00,
2013-02-14 06:32:00,62.0,60.0,29.96,ENE,71,3.0,4.0,92,0.00,,,0.00,weatherlink.com 1.10,2013-02-14 11:32:00,
2013-02-14 06:47:00,62.0,60.0,29.96,East,83,2.0,4.0,93,0.00,,,0.00,weatherlink.com 1.10,2013-02-14 11:47:00,
2013-02-14 07:02:00,62.1,60.0,29.97,ENE,75,0.0,7.0,92,0.00,,,0.00,weatherlink.com 1.10,2013-02-14 12:02:00,
2013-02-14 07:17:00,62.3,60.0,29.97,ENE,70,1.0,5.0,92,0.00,,,0.00,weatherlink.com 1.10,2013-02-14 12:17:00,
2013-02-14 07:32:00,62.5,60.0,29.97,ESE,110,3.0,5.0,92,0.00,,,0.00,weatherlink.com 1.10,2013-02-14 12:32:00,
2013-02-14 07:47:00,62.4,60.0,29.97,SE,124,4.0,6.0,93,0.00,,,0.00,weatherlink.com 1.10,2013-02-14 12:47:00,
2013-02-14 08:02:00,62.3,60.0,29.97,East,95,3.0,5.0,93,0.00,,,0.00,weatherlink.com 1.10,2013-02-14 13:02:00,
2013-02-14 08:17:00,62.6,61.0,29.98,East,92,3.0,5.0,93,0.00,,,0.00,weatherlink.com 1.10,2013-02-14 13:17:00,
2013-02-14 08:32:00,62.9,61.0,29.98,ENE,64,4.0,4.0,94,0.00,,,0.00,weatherlink.com 1.10,2013-02-14 13:32:00,
2013-02-14 08:47:00,63.2,62.0,29.97,East,85,2.0,6.0,94,0.00,,,0.00,weatherlink.com 1.10,2013-02-14 13:47:00,
2013-02-14 09:02:00,63.9,62.0,29.98,ENE,71,2.0,6.0,94,0.00,,,0.00,weatherlink.com 1.10,2013-02-14 14:02:00,
2013-02-14 09:17:00,64.5,63.0,29.99,ENE,74,0.0,4.0,94,0.00,,,0.00,weatherlink.com 1.10,2013-02-14 14:17:00,
2013-02-14 09:32:00,64.5,63.0,29.98,ENE,65,2.0,2.0,94,0.02,,,0.02,weatherlink.com 1.10,2013-02-14 14:32:00,
2013-02-14 09:47:00,64.4,63.0,29.99,East,82,1.0,3.0,95,0.03,,,0.03,weatherlink.com 1.10,2013-02-14 14:47:00,
2013-02-14 10:02:00,64.6,63.0,29.98,East,97,3.0,5.0,95,0.10,,,0.10,weatherlink.com 1.10,2013-02-14 15:02:00,
2013-02-14 10:17:00,64.9,64.0,29.99,East,87,0.0,4.0,96,0.11,,,0.11,weatherlink.com 1.10,2013-02-14 15:17:00,
2013-02-14 10:32:00,65.2,64.0,30.00,ENE,76,0.0,2.0,96,0.11,,,0.13,weatherlink.com 1.10,2013-02-14 15:32:00,
2013-02-14 10:47:00,65.5,64.0,29.99,ENE,77,0.0,3.0,96,0.12,,,0.15,weatherlink.com 1.10,2013-02-14 15:47:00,
2013-02-14 11:02:00,65.8,65.0,29.98,East,96,1.0,4.0,97,0.05,,,0.15,weatherlink.com 1.10,2013-02-14 16:02:00,
2013-02-14 11:17:00,66.1,65.0,29.98,ESE,109,2.0,2.0,97,0.04,,,0.15,weatherlink.com 1.10,2013-02-14 16:17:00,
2013-02-14 11:32:00,66.3,65.0,29.98,ENE,75,0.0,1.0,96,0.04,,,0.17,weatherlink.com 1.10,2013-02-14 16:32:00,
2013-02-14 11:47:00,66.6,66.0,29.97,ESE,108,2.0,4.0,97,0.17,,,0.32,weatherlink.com 1.10,2013-02-14 16:47:00,
2013-02-14 12:02:00,67.5,67.0,29.96,ESE,112,2.0,5.0,97,0.18,,,0.33,weatherlink.com 1.10,2013-02-14 17:02:00,
2013-02-14 12:17:00,68.4,68.0,29.95,East,94,2.0,4.0,97,0.18,,,0.33,weatherlink.com 1.10,2013-02-14 17:17:00,
2013-02-14 12:33:00,69.8,69.0,29.94,East,94,3.0,5.0,97,0.16,,,0.33,weatherlink.com 1.10,2013-02-14 17:33:00,
2013-02-14 12:47:00,70.8,69.0,29.93,ENE,67,1.0,4.0,95,0.00,,,0.33,weatherlink.com 1.10,2013-02-14 17:47:00,
2013-02-14 13:02:00,71.6,69.0,29.93,ENE,74,2.0,4.0,92,0.00,,,0.33,weatherlink.com 1.10,2013-02-14 18:02:00,
2013-02-14 13:17:00,70.7,69.0,29.92,ENE,65,0.0,4.0,93,0.00,,,0.00,weatherlink.com 1.10,2013-02-14 18:17:00,
2013-02-14 13:32:00,68.8,66.0,29.91,WNW,295,1.0,10.0,91,0.00,,,0.00,weatherlink.com 1.10,2013-02-14 18:32:00,
2013-02-14 13:48:00,65.1,64.0,29.94,WNW,293,8.0,16.0,95,0.27,,,0.27,weatherlink.com 1.10,2013-02-14 18:48:00,
2013-02-14 14:02:00,64.3,64.0,29.92,North,349,1.0,9.0,97,0.44,,,0.44,weatherlink.com 1.10,2013-02-14 19:02:00,
2013-02-14 14:17:00,63.6,63.0,29.91,WNW,295,9.0,18.0,97,0.64,,,0.64,weatherlink.com 1.10,2013-02-14 19:17:00,
2013-02-14 14:32:00,62.2,61.0,29.92,NW,325,4.0,17.0,97,1.07,,,1.07,weatherlink.com 1.10,2013-02-14 19:32:00,
2013-02-14 14:47:00,61.8,61.0,29.93,North,355,3.0,11.0,98,1.05,,,1.29,weatherlink.com 1.10,2013-02-14 19:47:00,
2013-02-14 15:02:00,61.4,61.0,29.94,North,5,5.0,11.0,98,0.97,,,1.41,weatherlink.com 1.10,2013-02-14 20:02:00,
2013-02-14 15:17:00,61.3,61.0,29.94,NW,326,3.0,10.0,98,0.87,,,1.53,weatherlink.com 1.10,2013-02-14 20:17:00,
2013-02-14 15:33:00,61.2,61.0,29.94,WNW,302,5.0,12.0,98,0.58,,,1.67,weatherlink.com 1.10,2013-02-14 20:33:00,
2013-02-14 15:48:00,61.2,61.0,29.95,North,11,6.0,10.0,98,0.66,,,1.96,weatherlink.com 1.10,2013-02-14 20:48:00,
2013-02-14 16:03:00,60.9,60.0,29.96,NW,308,7.0,13.0,98,0.74,,,2.15,weatherlink.com 1.10,2013-02-14 21:03:00,
2013-02-14 16:18:00,60.7,60.0,29.96,ENE,65,3.0,10.0,98,0.72,,,2.27,weatherlink.com 1.10,2013-02-14 21:18:00,
2013-02-14 16:33:00,60.4,60.0,29.96,WNW,300,7.0,15.0,98,0.67,,,2.36,weatherlink.com 1.10,2013-02-14 21:33:00,
2013-02-14 16:48:00,60.2,60.0,29.98,NNE,22,7.0,10.0,98,0.47,,,2.46,weatherlink.com 1.10,2013-02-14 21:48:00,
2013-02-14 17:18:00,59.4,59.0,29.99,North,355,5.0,11.0,98,0.32,,,2.59,weatherlink.com 1.10,2013-02-14 22:18:00,
2013-02-14 17:33:00,59.3,59.0,29.99,NNE,16,7.0,9.0,99,0.26,,,2.62,weatherlink.com 1.10,2013-02-14 22:33:00,
2013-02-14 17:48:00,59.5,59.0,30.00,ENE,72,3.0,6.0,99,0.18,,,2.65,weatherlink.com 1.10,2013-02-14 22:48:00,
2013-02-14 18:03:00,59.5,59.0,30.01,NNE,13,1.0,9.0,99,0.09,,,2.65,weatherlink.com 1.10,2013-02-14 23:03:00,
2013-02-14 18:18:00,59.8,60.0,30.00,NNE,23,4.0,6.0,99,0.07,,,2.66,weatherlink.com 1.10,2013-02-14 23:18:00,
2013-02-14 18:33:00,60.0,60.0,30.02,NW,319,2.0,6.0,99,0.04,,,2.67,weatherlink.com 1.10,2013-02-14 23:33:00,
2013-02-14 18:48:00,59.9,60.0,30.02,NW,324,3.0,8.0,99,0.02,,,2.67,weatherlink.com 1.10,2013-02-14 23:48:00,
2013-02-14 19:03:00,59.6,59.0,30.01,NW,311,5.0,9.0,99,0.02,,,2.67,weatherlink.com 1.10,2013-02-15 00:03:00,
2013-02-14 19:18:00,59.6,59.0,30.01,NE,50,1.0,6.0,99,0.01,,,2.67,weatherlink.com 1.10,2013-02-15 00:18:00,
2013-02-14 19:33:00,59.5,59.0,30.01,NNE,18,4.0,9.0,99,0.00,,,2.67,weatherlink.com 1.10,2013-02-15 00:33:00,
2013-02-14 19:48:00,59.2,59.0,30.03,ENE,72,1.0,9.0,99,0.00,,,2.67,weatherlink.com 1.10,2013-02-15 00:48:00,
2013-02-14 20:03:00,59.3,59.0,30.02,East,87,3.0,7.0,99,0.01,,,2.68,weatherlink.com 1.10,2013-02-15 01:03:00,
2013-02-14 20:18:00,59.1,59.0,30.02,ENE,61,4.0,10.0,99,0.01,,,2.68,weatherlink.com 1.10,2013-02-15 01:18:00,
2013-02-14 20:33:00,59.0,59.0,30.01,East,82,6.0,10.0,99,0.01,,,2.68,weatherlink.com 1.10,2013-02-15 01:33:00,
2013-02-14 20:48:00,59.2,59.0,30.00,NE,53,7.0,9.0,99,0.01,,,2.68,weatherlink.com 1.10,2013-02-15 01:48:00,
2013-02-14 21:03:00,59.2,59.0,30.02,ENE,60,3.0,8.0,99,0.00,,,2.68,weatherlink.com 1.10,2013-02-15 02:03:00,
2013-02-14 21:18:00,59.1,59.0,30.02,NNW,332,5.0,7.0,99,0.00,,,2.68,weatherlink.com 1.10,2013-02-15 02:18:00,
2013-02-14 21:33:00,58.8,58.0,30.03,ENE,67,4.0,5.0,98,0.00,,,2.68,weatherlink.com 1.10,2013-02-15 02:33:00,
2013-02-14 21:48:00,58.6,58.0,30.03,East,89,5.0,9.0,98,0.00,,,2.68,weatherlink.com 1.10,2013-02-15 02:48:00,
2013-02-14 22:03:00,58.5,58.0,30.03,East,79,6.0,8.0,98,0.00,,,2.68,weatherlink.com 1.10,2013-02-15 03:03:00,
2013-02-14 22:18:00,58.6,58.0,30.03,ENE,64,1.0,6.0,98,0.00,,,2.68,weatherlink.com 1.10,2013-02-15 03:18:00,
2013-02-14 22:33:00,58.5,58.0,30.02,NE,56,2.0,7.0,98,0.00,,,2.68,weatherlink.com 1.10,2013-02-15 03:33:00,
2013-02-14 22:48:00,58.5,58.0,30.03,ENE,63,2.0,5.0,98,0.00,,,2.68,weatherlink.com 1.10,2013-02-15 03:48:00,
2013-02-14 23:03:00,58.4,58.0,30.03,NE,40,2.0,5.0,98,0.00,,,2.68,weatherlink.com 1.10,2013-02-15 04:03:00,
2013-02-14 23:18:00,58.7,58.0,30.02,ENE,76,2.0,5.0,98,0.00,,,2.68,weatherlink.com 1.10,2013-02-15 04:18:00,
2013-02-14 23:33:00,58.9,58.0,30.02,East,81,2.0,4.0,98,0.00,,,2.68,weatherlink.com 1.10,2013-02-15 04:33:00,
2013-02-14 23:48:00,59.0,59.0,30.01,ENE,76,2.0,4.0,98,0.00,,,2.68,weatherlink.com 1.10,2013-02-15 04:48:00,